| time (UTC) | temp F | wind direction | speed knots | gust knots | rain 1hr in | rain 24hr in | rain mn in | humidity % | barometer mb |
| 20260506134512 | 64 | 120 | 0.0 | 4.3 | 0.00 | 0.45 | 0.01 | 61 | 1002.2 |
| 20260506133037 | 65 | 120 | 0.0 | 0.9 | 0.00 | 0.45 | 0.01 | 59 | 1002.3 |
| 20260506131612 | 65 | 120 | 0.0 | 0.0 | 0.00 | 0.45 | 0.01 | 58 | 1002.3 |
| 20260506130002 | 65 | 120 | 0.0 | 0.0 | 0.00 | 0.45 | 0.01 | 59 | 1002.5 |
| 20260506124524 | 65 | 120 | 0.0 | 0.0 | 0.00 | 0.45 | 0.01 | 59 | 1002.6 |
| 20260506123055 | 64 | 121 | 0.0 | 0.0 | 0.00 | 0.45 | 0.01 | 60 | 1002.8 |
| 20260506121514 | 65 | 120 | 0.0 | 0.0 | 0.00 | 0.45 | 0.01 | 60 | 1003.1 |
| 20260506120024 | 65 | 120 | 0.0 | 0.0 | 0.00 | 0.45 | 0.01 | 61 | 1003.1 |
| 20260506114551 | 64 | 120 | 0.0 | 0.0 | 0.00 | 0.45 | 0.01 | 60 | 1003.3 |
| 20260506113008 | 63 | 120 | 0.0 | 0.0 | 0.00 | 0.45 | 0.01 | 62 | 1003.5 |
| 20260506111534 | 63 | 120 | 0.0 | 0.9 | 0.00 | 0.45 | 0.01 | 63 | 1003.6 |
| 20260506110053 | 62 | 120 | 0.0 | 0.9 | 0.00 | 0.45 | 0.01 | 63 | 1003.9 |
| 20260506104607 | 61 | 120 | 0.0 | 0.0 | 0.00 | 0.45 | 0.01 | 66 | 1004.0 |
| 20260506103029 | 61 | 121 | 0.0 | 0.0 | 0.00 | 0.45 | 0.01 | 70 | 1004.5 |
| 20260506101549 | 60 | 121 | 0.0 | 0.0 | 0.00 | 0.45 | 0.01 | 69 | 1004.5 |
| 20260506100007 | 60 | 121 | 0.0 | 0.0 | 0.00 | 0.45 | 0.01 | 70 | 1004.5 |
| 20260506094522 | 60 | 121 | 0.0 | 0.0 | 0.00 | 0.45 | 0.01 | 71 | 1004.5 |
| 20260506093052 | 59 | 121 | 0.0 | 0.0 | 0.00 | 0.45 | 0.01 | 72 | 1004.8 |
| 20260506091506 | 59 | 120 | 0.0 | 0.9 | 0.00 | 0.45 | 0.01 | 72 | 1004.8 |
| 20260506090028 | 59 | 121 | 0.0 | 0.0 | 0.00 | 0.45 | 0.01 | 73 | 1004.6 |
| 20260506084546 | 59 | 121 | 0.0 | 0.0 | 0.00 | 0.45 | 0.01 | 76 | 1004.6 |
| 20260506083121 | 60 | 120 | 0.0 | 0.0 | 0.00 | 0.45 | 0.01 | 76 | 1004.7 |
| 20260506081528 | 60 | 121 | 0.0 | 0.0 | 0.00 | 0.45 | 0.01 | 73 | 1004.7 |
| 20260506073003 | 57 | 120 | 0.0 | 0.0 | 0.00 | 0.45 | 0.01 | 88 | 1005.1 |
| 20260506071521 | 55 | 121 | 0.0 | 0.0 | 0.00 | 0.45 | 0.01 | 93 | 1005.4 |
| 20260506061531 | 49 | 120 | 0.0 | 0.0 | 0.00 | 0.45 | 0.01 | 96 | 1005.6 |
| 20260506044524 | 45 | 120 | 0.0 | 0.0 | 0.00 | 0.45 | 0.01 | 97 | 1006.2 |
| 20260506043040 | 45 | 121 | 0.0 | 0.0 | 0.00 | 0.45 | 0.01 | 97 | 1006.0 |
| 20260506041513 | 45 | 120 | 0.0 | 0.0 | 0.00 | 0.45 | 0.01 | 97 | 1006.1 |
| 20260506040039 | 45 | 120 | 0.0 | 0.0 | 0.00 | 0.45 | 0.01 | 96 | 1006.4 |
| 20260506034603 | 45 | 120 | 0.0 | 0.0 | 0.00 | 0.45 | 0.01 | 96 | 1006.4 |
| 20260506033016 | 45 | 120 | 0.0 | 0.0 | 0.00 | 0.45 | 0.01 | 96 | 1006.3 |
| 20260506031531 | 46 | 120 | 0.0 | 0.0 | 0.00 | 0.45 | 0.01 | 96 | 1006.6 |
| 20260506030044 | 47 | 120 | 0.0 | 0.0 | 0.00 | 0.45 | 0.01 | 96 | 1006.7 |
| 20260506024525 | 47 | 120 | 0.0 | 0.0 | 0.00 | 0.45 | 0.01 | 96 | 1006.9 |
| 20260506023025 | 47 | 120 | 0.0 | 0.0 | 0.00 | 0.45 | 0.01 | 96 | 1007.1 |
| 20260506021540 | 47 | 120 | 0.0 | 0.0 | 0.00 | 0.45 | 0.01 | 97 | 1007.1 |
| 20260506020106 | 47 | 120 | 0.0 | 0.0 | 0.00 | 0.45 | 0.01 | 96 | 1006.9 |
| 20260506014515 | 47 | 120 | 0.0 | 0.0 | 0.00 | 0.45 | 0.01 | 96 | 1007.0 |
| 20260506013043 | 47 | 120 | 0.0 | 0.0 | 0.00 | 0.45 | 0.01 | 96 | 1007.1 |
| 20260506011623 | 47 | 120 | 0.0 | 0.0 | 0.00 | 0.45 | 0.01 | 95 | 1007.2 |
| 20260506010027 | 48 | 120 | 0.0 | 0.0 | 0.00 | 0.45 | 0.01 | 95 | 1007.3 |
| 20260506004607 | 49 | 120 | 0.0 | 0.0 | 0.00 | 0.45 | 0.01 | 95 | 1007.3 |
| 20260506003019 | 50 | 120 | 0.0 | 0.0 | 0.00 | 0.45 | 0.01 | 95 | 1007.2 |
| 20260506001537 | 49 | 120 | 0.0 | 0.0 | 0.00 | 0.45 | 0.01 | 95 | 1007.5 |
| 20260506000114 | 50 | 120 | 0.0 | 0.0 | 0.00 | 0.45 | 0.01 | 95 | 1007.6 |
| 20260505234506 | 50 | 120 | 0.0 | 0.0 | 0.01 | 0.45 | 0.01 | 95 | 1007.6 |
| 20260505233028 | 50 | 120 | 0.0 | 0.0 | 0.01 | 0.45 | 0.01 | 94 | 1007.7 |
| 20260505231539 | 50 | 120 | 0.0 | 0.0 | 0.01 | 0.45 | 0.01 | 94 | 1007.8 |
| 20260505230109 | 51 | 120 | 0.0 | 0.0 | 0.01 | 0.45 | 0.01 | 94 | 1007.8 |
| 20260505224506 | 51 | 120 | 0.0 | 0.0 | 0.00 | 0.44 | 0.00 | 93 | 1007.9 |
| 20260505223024 | 51 | 120 | 0.0 | 0.0 | 0.00 | 0.44 | 0.00 | 93 | 1007.9 |
| 20260505221554 | 51 | 120 | 0.0 | 0.0 | 0.02 | 0.44 | 0.00 | 93 | 1007.9 |
| 20260505220100 | 52 | 120 | 0.0 | 0.0 | 0.03 | 0.44 | 0.00 | 92 | 1008.0 |
| 20260505214522 | 52 | 120 | 0.0 | 0.0 | 0.09 | 0.44 | 0.44 | 92 | 1008.2 |
| 20260505213034 | 53 | 120 | 0.0 | 4.3 | 0.13 | 0.44 | 0.44 | 92 | 1008.4 |
| 20260505211558 | 53 | 120 | 0.0 | 0.0 | 0.15 | 0.43 | 0.43 | 92 | 1008.4 |
| 20260505210032 | 53 | 120 | 0.0 | 0.0 | 0.21 | 0.40 | 0.40 | 93 | 1008.3 |
| 20260505204519 | 53 | 120 | 0.0 | 0.0 | 0.24 | 0.35 | 0.35 | 92 | 1008.2 |
| 20260505203019 | 53 | 120 | 0.0 | 0.0 | 0.31 | 0.31 | 0.31 | 90 | 1007.9 |
| 20260505201518 | 53 | 120 | 0.0 | 0.0 | 0.28 | 0.28 | 0.28 | 89 | 1007.7 |
| 20260505200018 | 54 | 121 | 0.0 | 0.0 | 0.19 | 0.19 | 0.19 | 87 | 1007.5 |
| 20260505194517 | 55 | 121 | 0.0 | 3.5 | 0.09 | 0.09 | 0.09 | 83 | 1007.1 |
| 20260505193103 | 56 | 120 | 0.0 | 0.0 | 0.00 | 0.00 | 0.00 | 78 | 1006.6 |
| 20260505191510 | 57 | 120 | 0.0 | 0.0 | 0.00 | 0.00 | 0.00 | 74 | 1005.7 |
| 20260505190005 | 58 | 121 | 0.0 | 0.0 | 0.00 | 0.00 | 0.00 | 70 | 1005.4 |
| 20260505184531 | 59 | 121 | 0.0 | 0.0 | 0.00 | 0.00 | 0.00 | 67 | 1005.1 |
| 20260505183043 | 60 | 121 | 0.0 | 0.0 | 0.00 | 0.00 | 0.00 | 65 | 1005.0 |
| 20260505181559 | 61 | 121 | 0.0 | 0.0 | 0.00 | 0.00 | 0.00 | 62 | 1005.1 |
| 20260505180037 | 62 | 120 | 0.0 | 0.0 | 0.00 | 0.00 | 0.00 | 62 | 1005.0 |
| 20260505174600 | 62 | 121 | 0.0 | 7.0 | 0.00 | 0.00 | 0.00 | 61 | 1004.6 |
| 20260505173014 | 63 | 121 | 0.0 | 8.7 | 0.00 | 0.00 | 0.00 | 60 | 1004.4 |
| 20260505171539 | 64 | 120 | 0.0 | 6.1 | 0.00 | 0.00 | 0.00 | 63 | 1004.3 |
| 20260505170057 | 65 | 120 | 0.0 | 7.8 | 0.00 | 0.00 | 0.00 | 64 | 1004.2 |
| 20260505164523 | 66 | 121 | 0.0 | 0.9 | 0.00 | 0.00 | 0.00 | 57 | 1004.1 |
| 20260505163052 | 67 | 120 | 0.0 | 0.0 | 0.00 | 0.00 | 0.00 | 54 | 1004.1 |
| 20260505161508 | 67 | 120 | 0.0 | 0.0 | 0.00 | 0.00 | 0.00 | 53 | 1004.1 |
| 20260505153010 | 66 | 121 | 0.0 | 0.0 | 0.00 | 0.00 | 0.00 | 59 | 1004.0 |
| 20260505151538 | 66 | 120 | 0.0 | 0.0 | 0.00 | 0.00 | 0.00 | 58 | 1004.2 |
| 20260505150120 | 65 | 120 | 0.0 | 0.0 | 0.00 | 0.00 | 0.00 | 60 | 1004.2 |